This demonstration page uses our WeatherBlox Daily Observations layout. Learn more.

Left ArrowRight Arrow

40.92501, -98.34201

Hourly Observations for August 23, 2022

Temp ( °F °C ) Dew Point ( °F °C ) Humidity (%) Winds ( mph kmh ) Pressure ( in mb ) Visibility ( mi km ) Precip ( " mm )
12:53 am 00:53 Clear 68 20 59 15 73 73 S 6 9 30.02 1017 10 16 0.00 0.00
1:53 am 01:53 Clear 67 19.4 59 15 76 76 SSW 7 11 30.01 1016 10 16 0.00 0.00
2:53 am 02:53 Clear 67 19.4 58 14.4 73 73 SSW 6 9 30.01 1016 10 16 0.00 0.00
3:53 am 03:53 Clear 64 17.8 57 13.9 78 78 SSW 7 11 30.01 1016 10 16 0.00 0.00
4:53 am 04:53 Clear 65 18.3 57 13.9 76 76 SSW 7 11 30.00 1016 10 16 0.00 0.00
5:53 am 05:53 Clear 64 17.8 56 13.3 75 75 SSW 3 6 30.00 1016 10 16 0.00 0.00
6:53 am 06:53 Sunny 59 15 54 12.2 83 83 Calm 30.02 1017 10 16 0.00 0.00
7:53 am 07:53 Sunny 63 17.2 56 13.3 78 78 S 3 6 30.02 1017 10 16 0.00 0.00
8:53 am 08:53 Sunny 72 22.2 57 13.9 59 59 WSW 5 7 30.03 1017 10 16 0.00 0.00
9:53 am 09:53 Sunny 78 25.6 57 13.9 48 48 SW 12 19 30.01 1016 10 16 0.00 0.00
10:53 am 10:53 Sunny 83 28.3 57 13.9 41 41 SSW 8 13 30.01 1016 10 16 0.00 0.00
11:53 am 11:53 Sunny 86 30 57 13.9 37 37 S 9 15 30.00 1016 10 16 0.00 0.00
12:53 pm 12:53 Sunny 89 31.7 57 13.9 34 34 S 10 17 29.99 1016 10 16 0.00 0.00
1:53 pm 13:53 Sunny 89 31.7 56 13.3 33 33 S 13 20 29.98 1015 10 16 0.00 0.00
2:53 pm 14:53 Sunny 91 32.8 56 13.3 31 31 SSW 12 19 29.97 1015 10 16 0.00 0.00
3:53 pm 15:53 Sunny 90 32.2 57 13.9 33 33 SSW 12 19 29.96 1015 10 16 0.00 0.00
4:53 pm 16:53 Sunny 91 32.8 58 14.4 33 33 S 13 20 29.94 1014 10 16 0.00 0.00
5:53 pm 17:53 Sunny 89 31.7 58 14.4 35 35 S 12 19 29.93 1014 10 16 0.00 0.00
6:53 pm 18:53 Sunny 87 30.6 58 14.4 37 37 S 9 15 29.94 1014 10 16 0.00 0.00
7:53 pm 19:53 Sunny 83 28.3 60 15.6 46 46 S 6 9 29.96 1014 10 16 0.00 0.00
8:53 pm 20:53 Clear 76 24.4 61 16.1 60 60 S 7 11 29.97 1015 10 16 0.00 0.00
9:53 pm 21:53 Clear 74 23.3 61 16.1 64 64 S 7 11 29.98 1015 10 16 0.00 0.00
10:53 pm 22:53 Clear 74 23.3 61 16.1 64 64 S 8 13 29.98 1015 10 16 0.00 0.00
11:53 pm 23:53 Mostly Cloudy 74 23.3 61 16.1 64 64 S 9 15 29.99 1016 10 16 0.00 0.00

Powered by AerisWeather